Content
SEND FEEDBACK

Daily
Averages
Monthly
Summary
Russia

KANGLY, RUSSIA


Home > Europe > Russia
Elevation: 316 meters     Latitude: 44 12N     Longitude: 043 06E

WEATHER
 
SELECT A DAY
Number of Records: 204,970;   Date Range: 3/24/97 - 9/29/14
 
SHARE

PRINT THIS DATA

[ ← Previous Day ]
WEATHER ALMANAC - 31 JANUARY, 2013
[ Next Day → ]
[ °F ]   °C
Weather ElementAverageHighLow
Temperature1.6 °C6 °C (4:00 pm)0 °C (2:30 am)
Dewpoint0.3 °C2.8 °C (1:00 pm)-1 °C (2:30 am)
Humidity91.2 %100 % (9:30 am)61 % (4:00 pm)
Barometer1011.9 hPa1016.3 hPa (1:00 am)1009.1 hPa (3:30 pm)
Wind Speed4.5 km/h18 km/h (11:00 pm)
Wind Gust18 km/h (3:30 pm)
Weather ElementAverage
Visibility7.2 km
Wind DirectionENE (62.4 °)

Weather ElementTotal
Precipitation---
Heating Degree Days15.3 (Base 18.3)
Averaged from 54 records on 31 January, 2013
WEATHER CONDITIONS BREAKOUT
WIND DIRECTION BREAKOUT
WEATHER BY HOUR - 31 JANUARY, 2013
[ °F ]   °C
Local TimeTemperatureDewpointHumidityBarometerVisibilityWind DirectionWind SpeedGust SpeedPrecipitationEventsConditions
12:30 AM1 °C0 °C93 %1014.2 hPa10 kmCalmOvercast
1:00 AM0.6 °C0 °C93 %1016.3 hPa3.2 kmCalmMist
1:00 AM1 °C0 °C93 %1014.2 hPa10 kmCalmOvercast
1:30 AM1 °C0 °C93 %1014.2 hPa10 kmCalmOvercast
2:00 AM1 °C0 °C93 %1014.2 hPa10 kmCalmOvercast
2:30 AM0 °C-1 °C93 %1014.2 hPa10 kmCalmOvercast
3:00 AM0 °C-1 °C93 %1014.2 hPa10 kmCalmOvercast
3:30 AM0 °C-1 °C93 %1013.2 hPa10 kmCalmOvercast
4:00 AM0.6 °C-0.6 °C92 %1016.3 hPa3.2 kmCalmMist
4:00 AM0 °C-1 °C93 %1013.2 hPa10 kmCalmOvercast
4:30 AM0 °C-1 °C93 %1013.2 hPa10 kmCalmOvercast
5:00 AM0 °C-1 °C93 %1013.2 hPa10 kmCalmOvercast
5:30 AM0 °C-1 °C93 %1013.2 hPa6.9 kmCalmMostly Cloudy
6:00 AM0 °C-1 °C93 %1013.2 hPa6.9 kmCalmMostly Cloudy
6:30 AM0 °C-1 °C93 %1013.2 hPa6.9 kmCalmMostly Cloudy
7:00 AM0 °C-1 °C93 %1013.2 hPa6.9 kmCalmMostly Cloudy
7:30 AM0 °C-1 °C93 %1013.2 hPa6.9 kmCalmMostly Cloudy
8:00 AM0 °C-1 °C93 %1013.2 hPa6.9 kmCalmMostly Cloudy
8:30 AM0 °C-1 °C93 %1013.2 hPa6 kmEast (100°)3.5 km/hMostly Cloudy
9:00 AM0 °C-1 °C93 %1013.2 hPa5 kmVariable3.5 km/hOvercast
9:30 AM0 °C0 °C100 %1013.2 hPa5 kmCalmOvercast
10:00 AM0.6 °C0 °C92 %1015.6 hPa3.2 kmNE (50°)3.5 km/hMist
10:00 AM0 °C0 °C100 %1013.2 hPaCalmMostly Cloudy
10:30 AM1 °C0 °C93 %1013.2 hPa5 kmCalmMostly Cloudy
11:00 AM1 °C1 °C100 %1012.2 hPa6 kmVariable3.5 km/hMostly Cloudy
11:30 AM2 °C1 °C93 %1012.2 hPa6 kmESE (120°)3.5 km/hMostly Cloudy
12:00 PM2 °C1 °C93 %1012.2 hPa6 kmVariable3.5 km/hMostly Cloudy
12:30 PM3 °C2 °C93 %1011.2 hPa6 kmVariable3.5 km/hMostly Cloudy
1:00 PM3.9 °C2.8 °C88 %1013.5 hPa19.3 kmSSE (150°)3.5 km/hPartly Cloudy
1:00 PM4 °C2 °C87 %1011.2 hPa10 kmVariable3.5 km/hMostly Cloudy
1:30 PM4 °C2 °C87 %1011.2 hPa10 kmVariable3.5 km/hMostly Cloudy
2:00 PM5 °C2 °C81 %1010.2 hPa10 kmNNW (330°)7.2 km/h14.3 km/hMostly Cloudy
2:30 PM5 °C2 °C81 %1010.2 hPa10 kmNW (310°)10.8 km/hMostly Cloudy
3:00 PM5 °C2 °C81 %1010.2 hPa10 kmNorth (350°)10.8 km/hMostly Cloudy
3:30 PM5 °C2 °C81 %1009.1 hPa10 kmNNE (20°)10.8 km/h18 km/hMostly Cloudy
4:00 PM5.6 °C0.6 °C61 %1011.9 hPa19.3 kmCalmOvercast
4:00 PM6 °C2 °C76 %1010.2 hPa10 kmVariable3.5 km/hMostly Cloudy
4:30 PM6 °C2 °C76 %1009.1 hPa10 kmSouth (170°)7.2 km/hMostly Cloudy
5:00 PM5 °C1 °C76 %1009.1 hPa10 kmSSE (160°)3.5 km/hMostly Cloudy
5:30 PM5 °C2 °C81 %1009.1 hPa10 kmENE (60°)7.2 km/hMostly Cloudy
6:00 PM3 °C2 °C93 %1009.1 hPa10 kmESE (110°)14.3 km/hMostly Cloudy
6:30 PM2 °C1 °C93 %1009.1 hPa6.9 kmEast (100°)10.8 km/hMostly Cloudy
7:00 PM2.2 °C1.1 °C87 %1011.9 hPa3.2 kmEast (80°)7.2 km/hMist
7:00 PM1 °C0 °C93 %1009.1 hPa5 kmESE (110°)7.2 km/hMostly Cloudy
7:30 PM0 °C0 °C100 %1009.1 hPaEast (100°)10.8 km/hMostly Cloudy
8:00 PM1 °C1 °C100 %1009.1 hPa3.1 kmEast (100°)10.8 km/hMostly Cloudy
8:30 PM1 °C0 °C93 %1009.1 hPa3.1 kmEast (90°)7.2 km/hMostly Cloudy
9:00 PM0 °C0 °C100 %1009.1 hPa2.6 kmEast (90°)7.2 km/hScattered Clouds
9:30 PM0 °C0 °C100 %1009.1 hPa1.1 kmESE (120°)10.8 km/hOvercast
10:00 PM0 °C-0.6 °C96 %1011.9 hPa3.2 kmNE (50°)10.8 km/hMist
10:00 PM0 °C-1 °C93 %1009.1 hPa1.8 kmESE (110°)7.2 km/hOvercast
10:30 PM0 °C0 °C100 %1009.1 hPa0.3 kmEast (80°)10.8 km/h18 km/hFogFog
11:00 PM0 °C0 °C100 %1009.1 hPa0.2 kmEast (100°)18 km/hFogFog
11:30 PM0 °C0 °C100 %1009.1 hPa0.3 kmESE (120°)10.8 km/hFogFog
Hourly data recorded from URMM, located 0 kilometers away from Kangly, Russia







STORIES FROM OUR PARTNERS